Location: Warszawa
(52.2500°N, 21.0000°E)
Time: 08:55:58
(UTC+02:00)

Gurwin Techsat 1B - Pass Details

Date: 28 April 2024
Orbit: 811 x 812 km, 98.9° (Epoch: 20 May)

Event Time Altitude Azimuth Distance (km) Brightness Sun altitude
Rises 02:30:04 0° 31° (NNE) 3,348 13.5 -18.9°
Reaches altitude 10° 02:34:24 10° 65° (ENE) 2,408 11.9 -18.5°
Maximum altitude 02:36:02 11° 83° (E) 2,312 11.5 -18.4°
Drops below altitude 10° 02:37:40 10° 101° (E) 2,403 11.3 -18.3°
Sets 02:41:57 0° 135° (SE) 3,326 11.7 -17.9°
